Find Starlink 11703

NORAD ID: 63759 Int'l Des: 2025-089 Owner: SPXS Country: US Constellation: starlink operational
LEOCIRCULAR

Live-Position

3D-Globus wird geladen...

Über Starlink 11703

Beschreibung wird geladen...

Nächste Überflüge

Passes for default location (London). Set your location on the main map for personalized predictions.

Höhenverlauf

Loading altitude history...

Zweizeiliger Elementsatz

1 63759U 25089J 26127.48294236 .00171004 00000-0 13021-2 0 9992
2 63759 42.9990 297.7220 0001396 240.7755 119.2974 15.70964600 59389
Epoch: 7. Mai 2026 • Age: 19 hours

Aktueller Status

Höhe 358.9 km
Geschwindigkeit 7.70 km/s
Subsatellitenpunkt 41.47°N, 81.32°E
Startdatum 29. Apr. 2025
Alter 1 years
Typ internet

Technische Details

Klassifizierung Payload
Masse 960.00 kg
Trockenmasse 910.00 kg
Gesamtmasse 960.00 kg
Länge 0.30 m
Durchmesser 4.10 m
Spannweite 29.00 m
Form Box + pan
Hersteller SPXS
Bus-Typ Starlink V2MD
Phasenstatus In Orbit
Besitzer/Staat SPXS/US

Most Searched